THORAD AGENA D DEB

Satellite information

Favourite Embed

Satellite Type and Status

DEBRISIN ORBIT

Key statistics

Satellite THORAD AGENA D DEB at a glance.

Uptime

20120

Days in orbit

Revolutions

≈ 14.2

Per day

Orbit

SSO

Sun Synchronous Orbit

Inclination

99.9

Latest

Satellite identification and parameters

Extended collection of information and parameters for THORAD AGENA D DEB.

Object identification

Identified? True

Debris? True

Object name: THORAD AGENA D DEB

International designator: 1970-025MX

Object number (NORAD): 6157

Object ID (CCSDS): 6157

Country: UNITED STATES OF AMERICA (US)

Current information (Y/N): Y

RCS size: SMALL

Orbital parameters

Period: 101.512 minutes

Inclination: 99.8793 deg

SMA: 7208.415 km

Apoapsis: 841.053 km

Periapsis: 819.507 km

RAAN: 260.0084 deg

Eccentricy: 0.0014945

Argument of periapsis: 103.5822 deg

Mean anomaly: 256.7016 deg

Mean motion: 14.18544873 rev/day

Mean motion (dot): 0.00003835 rev/day2

B* drag term: 0.0018763 1/REarth

Two-line elements (TLE)

Creation date: May 8, 2025, 3:01 a.m.

Reference frame: TEME

Reference center: EARTH

Epoch: May 7, 2025, 7:15 a.m. UTC

TLE line 0: 0 THORAD AGENA D DEB

TLE line 1: 1 06157U 70025MX 25127.30255738 .00003835 00000-0 18763-2 0 9999

TLE line 2: 2 06157 99.8793 260.0084 0014945 103.5822 256.7016 14.18544873788319

Live tracking on map

Real-time ground track for satellite THORAD AGENA D DEB.

In-orbit conjunctions

A list of the most updated potential collisions computed for object THORAD AGENA D DEB.

Target Orbit TCA Probability of collision Miss distance Type
METEOR 2-3 LEO 2024-08-03 07:41:58 0.0001990933 912.0 (m) PAYLOAD
SCOUT X-4 R/B SSO 2024-07-27 11:01:25 0.0001688984 432.0 (m) ROCKET BODY
METEOR 2-7 LEO 2024-06-28 01:33:14 0.0001082744 849.0 (m) PAYLOAD

Associated space launch

Meteorological research and development satellite

THORAD AGENA D DEB was lifted into orbit during the mission ‘Thorad SLV-2G Agena D | Nimbus 4’, on board a Thorad SLV-2G Agena D space rocket.

The launch took place on April 8, 1970, 8:17 a.m. from Space Launch Complex 2E.

For more information about the launch, click the button.

Launch to space Thorad SLV-2G Agena D | Nimbus 4
Thorad SLV-2G Agena D | Nimbus 4

Agency: N/A

Status: Launch Successful

Launch date: April 8, 1970, 8:17 a.m. UTC

Rocket: Thorad SLV-2G Agena D

Launch pad: Space Launch Complex 2E

Location: Vandenberg SFB, CA, USA

...

Latest news about this satellite

There are no fresh news available about this satellite. Check back as we update our databases every day.


Newsletter sign-up

Weekly statistics, charts and insights to help you stay on top of the space industry.